Time,TemperatureF,DewpointF,PressureIn,WindDirection,WindDirectionDegrees,WindSpeedMPH,WindSpeedGustMPH,Humidity,HourlyPrecipIn,Conditions,Clouds,dailyrainin,SoftwareType,DateUTC
2013-09-10 00:01:00,61.8,59.8,29.95,SSW,194,0.0,0.0,93,0.00,,CLR,0.00,VWS V14.01,2013-09-10 07:01:00,
2013-09-10 00:06:00,61.7,60.0,29.95,SSW,194,0.0,0.0,94,0.00,,CLR,0.00,VWS V14.01,2013-09-10 07:06:00,
2013-09-10 00:11:00,61.6,59.9,29.95,West,264,0.0,0.0,94,0.00,,CLR,0.00,VWS V14.01,2013-09-10 07:11:00,
2013-09-10 00:16:00,61.6,59.9,29.95,West,264,0.0,0.0,94,0.00,,CLR,0.00,VWS V14.01,2013-09-10 07:16:00,
2013-09-10 00:21:00,61.5,59.8,29.95,SSW,194,0.0,0.0,94,0.00,,CLR,0.00,VWS V14.01,2013-09-10 07:21:00,
2013-09-10 00:26:00,61.4,59.7,29.95,SSW,194,0.0,0.0,94,0.00,,CLR,0.00,VWS V14.01,2013-09-10 07:26:00,
2013-09-10 00:31:00,61.2,59.5,29.95,ESE,106,0.0,0.0,94,0.00,,CLR,0.00,VWS V14.01,2013-09-10 07:31:00,
2013-09-10 00:36:00,61.1,59.4,29.95,ESE,106,0.0,0.0,94,0.00,,CLR,0.00,VWS V14.01,2013-09-10 07:36:00,
2013-09-10 00:41:00,61.1,59.4,29.95,ESE,104,2.0,0.0,94,0.00,,CLR,0.00,VWS V14.01,2013-09-10 07:41:00,
2013-09-10 00:46:00,61.2,59.5,29.95,SSW,198,0.0,0.0,94,0.00,,CLR,0.00,VWS V14.01,2013-09-10 07:46:00,
2013-09-10 00:51:00,61.2,59.5,29.95,ESE,122,0.0,0.0,94,0.00,,CLR,0.00,VWS V14.01,2013-09-10 07:51:00,
2013-09-10 00:56:00,61.1,59.4,29.95,ESE,123,0.0,0.0,94,0.00,,CLR,0.00,VWS V14.01,2013-09-10 07:56:00,
2013-09-10 01:01:00,61.0,59.3,29.95,ESE,122,0.0,0.0,94,0.00,,CLR,0.00,VWS V14.01,2013-09-10 08:01:00,
2013-09-10 01:06:00,60.8,59.1,29.95,ESE,123,0.0,0.0,94,0.00,,CLR,0.00,VWS V14.01,2013-09-10 08:06:00,
2013-09-10 01:11:00,60.6,58.9,29.95,ESE,122,0.0,0.0,94,0.00,,CLR,0.00,VWS V14.01,2013-09-10 08:11:00,
2013-09-10 01:16:00,60.5,58.8,29.95,ESE,122,0.0,0.0,94,0.00,,CLR,0.00,VWS V14.01,2013-09-10 08:16:00,
2013-09-10 01:21:00,60.4,58.7,29.96,ESE,122,0.0,0.0,94,0.00,,CLR,0.00,VWS V14.01,2013-09-10 08:21:00,
2013-09-10 01:26:00,60.3,58.6,29.96,ESE,122,0.0,0.0,94,0.00,,CLR,0.00,VWS V14.01,2013-09-10 08:26:00,
2013-09-10 01:31:00,60.1,58.4,29.96,ESE,122,0.0,0.0,94,0.00,,CLR,0.00,VWS V14.01,2013-09-10 08:31:00,
2013-09-10 01:36:00,60.0,58.6,29.96,ESE,122,0.0,0.0,95,0.00,,CLR,0.00,VWS V14.01,2013-09-10 08:36:00,
2013-09-10 01:41:00,60.0,58.6,29.96,ESE,122,0.0,0.0,95,0.00,,CLR,0.00,VWS V14.01,2013-09-10 08:41:00,
2013-09-10 01:46:00,59.8,58.4,29.96,ESE,123,0.0,0.0,95,0.00,,CLR,0.00,VWS V14.01,2013-09-10 08:46:00,
2013-09-10 01:51:00,59.6,58.2,29.96,SE,126,0.0,0.0,95,0.00,,CLR,0.00,VWS V14.01,2013-09-10 08:51:00,
2013-09-10 01:56:00,59.7,58.3,29.96,SE,126,0.0,0.0,95,0.00,,CLR,0.00,VWS V14.01,2013-09-10 08:56:00,
2013-09-10 02:01:00,59.6,58.2,29.96,SE,126,0.0,0.0,95,0.00,,CLR,0.00,VWS V14.01,2013-09-10 09:01:00,
2013-09-10 02:06:00,59.5,58.1,29.96,SE,126,0.0,0.0,95,0.00,,CLR,0.00,VWS V14.01,2013-09-10 09:06:00,
2013-09-10 02:11:00,59.5,58.1,29.96,SE,126,0.0,0.0,95,0.00,,CLR,0.00,VWS V14.01,2013-09-10 09:11:00,
2013-09-10 02:16:00,59.4,58.0,29.96,SE,126,0.0,0.0,95,0.00,,CLR,0.00,VWS V14.01,2013-09-10 09:16:00,
2013-09-10 02:21:00,59.5,58.1,29.95,SSE,164,0.0,0.0,95,0.00,,CLR,0.00,VWS V14.01,2013-09-10 09:21:00,
2013-09-10 02:26:00,59.6,58.2,29.95,SSE,164,0.0,0.0,95,0.00,,CLR,0.00,VWS V14.01,2013-09-10 09:26:00,
2013-09-10 02:31:00,59.5,58.1,29.95,SSE,164,0.0,0.0,95,0.00,,CLR,0.00,VWS V14.01,2013-09-10 09:31:00,
2013-09-10 02:36:00,59.6,58.2,29.95,ESE,113,0.0,0.0,95,0.00,,CLR,0.00,VWS V14.01,2013-09-10 09:36:00,
2013-09-10 02:41:00,59.7,58.3,29.96,South,190,0.0,0.0,95,0.00,,CLR,0.00,VWS V14.01,2013-09-10 09:41:00,
2013-09-10 02:46:00,59.7,58.3,29.96,South,190,0.0,0.0,95,0.00,,BKN006,0.00,VWS V14.01,2013-09-10 09:46:00,
2013-09-10 02:51:00,59.7,58.3,29.96,South,190,0.0,0.0,95,0.00,,BKN006,0.00,VWS V14.01,2013-09-10 09:51:00,
2013-09-10 02:56:00,59.6,58.2,29.95,South,190,0.0,0.0,95,0.00,,BKN006,0.00,VWS V14.01,2013-09-10 09:56:00,
2013-09-10 03:01:00,59.7,58.3,29.95,South,187,0.0,0.0,95,0.00,,BKN006,0.00,VWS V14.01,2013-09-10 10:01:00,
2013-09-10 03:06:00,59.7,58.3,29.95,South,187,0.0,0.0,95,0.00,,BKN005,0.00,VWS V14.01,2013-09-10 10:06:00,
2013-09-10 03:11:00,59.6,58.2,29.95,South,187,0.0,0.0,95,0.00,,BKN005,0.00,VWS V14.01,2013-09-10 10:11:00,
2013-09-10 03:16:00,59.6,58.2,29.95,South,187,0.0,0.0,95,0.00,,BKN005,0.00,VWS V14.01,2013-09-10 10:16:00,
2013-09-10 03:21:00,59.5,58.1,29.95,South,187,0.0,0.0,95,0.00,,BKN005,0.00,VWS V14.01,2013-09-10 10:21:00,
2013-09-10 03:26:00,59.4,58.0,29.95,South,187,0.0,0.0,95,0.00,,BKN005,0.00,VWS V14.01,2013-09-10 10:26:00,
2013-09-10 03:31:00,59.2,57.8,29.95,South,187,0.0,0.0,95,0.00,,BKN005,0.00,VWS V14.01,2013-09-10 10:31:00,
2013-09-10 03:36:00,59.1,57.7,29.95,South,187,0.0,0.0,95,0.00,,BKN005,0.00,VWS V14.01,2013-09-10 10:36:00,
2013-09-10 03:41:00,59.1,57.7,29.95,South,187,0.0,0.0,95,0.00,,BKN005,0.00,VWS V14.01,2013-09-10 10:41:00,
2013-09-10 03:46:00,59.2,57.8,29.95,South,187,0.0,0.0,95,0.00,,BKN005,0.00,VWS V14.01,2013-09-10 10:46:00,
2013-09-10 03:51:00,59.2,58.1,29.95,South,187,0.0,0.0,96,0.00,,BKN005,0.00,VWS V14.01,2013-09-10 10:51:00,
2013-09-10 03:56:00,59.2,58.1,29.94,South,187,0.0,0.0,96,0.00,,BKN005,0.00,VWS V14.01,2013-09-10 10:56:00,
2013-09-10 04:01:00,59.3,58.2,29.94,SSW,210,0.0,0.0,96,0.00,,BKN005,0.00,VWS V14.01,2013-09-10 11:01:00,
2013-09-10 04:06:00,59.3,58.2,29.94,SSW,210,0.0,0.0,96,0.00,,FEW005,0.00,VWS V14.01,2013-09-10 11:06:00,
2013-09-10 04:11:00,59.2,58.1,29.94,SSW,210,0.0,0.0,96,0.00,,FEW005,0.00,VWS V14.01,2013-09-10 11:11:00,
2013-09-10 04:16:00,59.3,58.2,29.94,SSW,210,0.0,0.0,96,0.00,,FEW005,0.00,VWS V14.01,2013-09-10 11:16:00,
2013-09-10 04:21:00,59.2,58.1,29.94,SSW,210,0.0,0.0,96,0.00,,FEW005,0.00,VWS V14.01,2013-09-10 11:21:00,
2013-09-10 04:26:00,59.2,58.1,29.94,SSW,210,0.0,0.0,96,0.00,,CLR,0.00,VWS V14.01,2013-09-10 11:26:00,
2013-09-10 04:31:00,59.3,58.2,29.94,SSW,210,0.0,0.0,96,0.00,,CLR,0.00,VWS V14.01,2013-09-10 11:31:00,
2013-09-10 04:36:00,59.3,58.2,29.94,SSW,210,0.0,0.0,96,0.00,,CLR,0.00,VWS V14.01,2013-09-10 11:36:00,
2013-09-10 04:41:00,59.3,58.2,29.94,SSW,210,0.0,0.0,96,0.00,,CLR,0.00,VWS V14.01,2013-09-10 11:41:00,
2013-09-10 04:46:00,59.5,58.4,29.94,SSW,196,0.0,0.0,96,0.00,,FEW005,0.00,VWS V14.01,2013-09-10 11:46:00,
2013-09-10 04:51:00,59.6,58.5,29.94,SSW,196,0.0,0.0,96,0.00,,FEW005,0.00,VWS V14.01,2013-09-10 11:51:00,
2013-09-10 04:56:00,59.7,58.6,29.94,ESE,108,0.0,0.0,96,0.00,,FEW005,0.00,VWS V14.01,2013-09-10 11:56:00,
2013-09-10 05:01:00,59.7,58.6,29.94,ESE,107,0.0,0.0,96,0.00,,FEW005,0.00,VWS V14.01,2013-09-10 12:01:00,
2013-09-10 05:06:00,59.7,58.6,29.94,ESE,106,0.0,0.0,96,0.00,,BKN016,0.00,VWS V14.01,2013-09-10 12:06:00,
2013-09-10 05:11:00,59.7,58.6,29.94,ESE,107,0.0,0.0,96,0.00,,BKN016,0.00,VWS V14.01,2013-09-10 12:11:00,
2013-09-10 05:16:00,59.6,58.5,29.94,ESE,106,1.0,0.0,96,0.00,,BKN016,0.00,VWS V14.01,2013-09-10 12:16:00,
2013-09-10 05:21:00,59.5,58.4,29.94,ESE,106,0.0,0.0,96,0.00,,BKN016,0.00,VWS V14.01,2013-09-10 12:21:00,
2013-09-10 05:26:00,59.4,58.3,29.94,ESE,106,0.0,0.0,96,0.00,,OVC014,0.00,VWS V14.01,2013-09-10 12:26:00,
2013-09-10 05:31:00,59.3,58.2,29.94,ESE,107,0.0,0.0,96,0.00,,OVC014,0.00,VWS V14.01,2013-09-10 12:31:00,
2013-09-10 05:36:00,59.2,58.1,29.94,ESE,106,0.0,0.0,96,0.00,,OVC014,0.00,VWS V14.01,2013-09-10 12:36:00,
2013-09-10 05:41:00,59.2,58.1,29.94,ESE,106,0.0,0.0,96,0.00,,OVC014,0.00,VWS V14.01,2013-09-10 12:41:00,
2013-09-10 05:46:00,59.2,58.1,29.94,ESE,106,1.0,0.0,96,0.00,,OVC014,0.00,VWS V14.01,2013-09-10 12:46:00,
2013-09-10 05:51:00,59.1,58.0,29.94,SE,134,1.0,0.0,96,0.00,,OVC014,0.00,VWS V14.01,2013-09-10 12:51:00,
2013-09-10 05:56:00,59.0,57.9,29.93,East,90,0.0,0.0,96,0.00,,OVC014,0.00,VWS V14.01,2013-09-10 12:56:00,
2013-09-10 06:01:00,59.0,57.9,29.93,East,90,0.0,0.0,96,0.00,,OVC014,0.00,VWS V14.01,2013-09-10 13:01:00,
2013-09-10 06:06:00,59.0,57.9,29.93,East,90,0.0,0.0,96,0.00,,OVC012,0.00,VWS V14.01,2013-09-10 13:06:00,
2013-09-10 06:11:00,59.0,57.9,29.94,East,90,0.0,0.0,96,0.00,,OVC012,0.00,VWS V14.01,2013-09-10 13:11:00,
2013-09-10 06:16:00,59.0,57.9,29.93,East,90,0.0,0.0,96,0.00,,OVC012,0.00,VWS V14.01,2013-09-10 13:16:00,
2013-09-10 06:21:00,59.0,57.9,29.94,East,90,0.0,0.0,96,0.00,,OVC012,0.00,VWS V14.01,2013-09-10 13:21:00,
2013-09-10 06:26:00,59.0,57.9,29.94,East,90,0.0,0.0,96,0.00,,OVC012,0.00,VWS V14.01,2013-09-10 13:26:00,
2013-09-10 06:31:00,59.0,57.9,29.94,East,90,0.0,0.0,96,0.00,,OVC012,0.00,VWS V14.01,2013-09-10 13:31:00,
2013-09-10 06:36:00,59.0,57.9,29.94,East,90,0.0,0.0,96,0.00,,OVC012,0.00,VWS V14.01,2013-09-10 13:36:00,
2013-09-10 06:41:00,59.0,57.9,29.94,East,90,0.0,0.0,96,0.00,,OVC012,0.00,VWS V14.01,2013-09-10 13:41:00,
2013-09-10 06:46:00,59.0,57.9,29.94,East,90,0.0,0.0,96,0.00,,OVC010,0.00,VWS V14.01,2013-09-10 13:46:00,
2013-09-10 06:51:00,59.0,57.9,29.94,East,90,0.0,0.0,96,0.00,,OVC010,0.00,VWS V14.01,2013-09-10 13:51:00,
2013-09-10 06:56:00,59.0,57.9,29.94,East,90,0.0,0.0,96,0.00,,OVC010,0.00,VWS V14.01,2013-09-10 13:56:00,
2013-09-10 07:01:00,59.0,57.9,29.94,East,90,0.0,0.0,96,0.00,,OVC010,0.00,VWS V14.01,2013-09-10 14:01:00,
2013-09-10 07:06:00,59.0,57.9,29.94,ESE,105,0.0,0.0,96,0.00,,OVC010,0.00,VWS V14.01,2013-09-10 14:06:00,
2013-09-10 07:11:00,59.1,58.0,29.94,ESE,105,0.0,0.0,96,0.00,,OVC010,0.00,VWS V14.01,2013-09-10 14:11:00,
2013-09-10 07:16:00,59.1,58.0,29.94,ESE,105,0.0,0.0,96,0.00,,OVC010,0.00,VWS V14.01,2013-09-10 14:16:00,
2013-09-10 07:21:00,59.2,58.1,29.94,ESE,105,0.0,0.0,96,0.00,,OVC010,0.00,VWS V14.01,2013-09-10 14:21:00,
2013-09-10 07:26:00,59.2,58.1,29.95,ESE,105,0.0,0.0,96,0.00,,OVC010,0.00,VWS V14.01,2013-09-10 14:26:00,
2013-09-10 07:31:00,59.3,58.2,29.94,ESE,105,0.0,0.0,96,0.00,,OVC010,0.00,VWS V14.01,2013-09-10 14:31:00,
2013-09-10 07:36:00,59.3,58.2,29.95,ESE,105,0.0,0.0,96,0.00,,OVC010,0.00,VWS V14.01,2013-09-10 14:36:00,
2013-09-10 07:41:00,59.3,58.2,29.95,ESE,105,0.0,0.0,96,0.00,,OVC010,0.00,VWS V14.01,2013-09-10 14:41:00,
2013-09-10 07:46:00,59.3,58.2,29.95,ESE,105,0.0,0.0,96,0.00,,OVC010,0.00,VWS V14.01,2013-09-10 14:46:00,
2013-09-10 07:51:00,59.4,58.3,29.95,ESE,105,0.0,0.0,96,0.00,,OVC010,0.00,VWS V14.01,2013-09-10 14:51:00,
2013-09-10 07:56:00,59.4,58.3,29.95,ESE,105,0.0,0.0,96,0.00,,OVC010,0.00,VWS V14.01,2013-09-10 14:56:00,
2013-09-10 08:01:00,59.4,58.3,29.95,ESE,105,0.0,0.0,96,0.00,,OVC010,0.00,VWS V14.01,2013-09-10 15:01:00,
2013-09-10 08:06:00,59.5,58.4,29.95,ESE,113,0.0,0.0,96,0.00,,OVC010,0.00,VWS V14.01,2013-09-10 15:06:00,
2013-09-10 08:11:00,59.5,58.4,29.95,ESE,113,0.0,0.0,96,0.00,,OVC010,0.00,VWS V14.01,2013-09-10 15:11:00,
2013-09-10 08:16:00,59.6,58.5,29.95,ESE,113,0.0,0.0,96,0.00,,OVC010,0.00,VWS V14.01,2013-09-10 15:16:00,
2013-09-10 08:21:00,59.7,58.6,29.95,ESE,113,1.0,0.0,96,0.00,,OVC010,0.00,VWS V14.01,2013-09-10 15:21:00,
2013-09-10 08:26:00,59.7,58.6,29.95,ESE,113,0.0,0.0,96,0.00,,OVC008,0.00,VWS V14.01,2013-09-10 15:26:00,
2013-09-10 08:31:00,59.9,58.8,29.95,ESE,113,0.0,0.0,96,0.00,,OVC008,0.00,VWS V14.01,2013-09-10 15:31:00,
2013-09-10 08:36:00,60.1,59.0,29.95,ESE,113,0.0,0.0,96,0.00,,OVC008,0.00,VWS V14.01,2013-09-10 15:36:00,
2013-09-10 08:41:00,60.2,59.1,29.95,East,96,0.0,0.0,96,0.00,,OVC008,0.00,VWS V14.01,2013-09-10 15:41:00,
2013-09-10 08:46:00,60.4,59.3,29.95,East,96,0.0,0.0,96,0.00,,OVC008,0.00,VWS V14.01,2013-09-10 15:46:00,
2013-09-10 08:51:00,60.6,59.5,29.94,East,96,0.0,0.0,96,0.00,,OVC008,0.00,VWS V14.01,2013-09-10 15:51:00,
2013-09-10 08:56:00,60.9,59.8,29.94,East,83,1.0,0.0,96,0.00,,OVC008,0.00,VWS V14.01,2013-09-10 15:56:00,
2013-09-10 09:01:00,61.1,60.0,29.94,NNE,22,2.0,0.0,96,0.00,,OVC008,0.00,VWS V14.01,2013-09-10 16:01:00,
2013-09-10 09:06:00,61.2,60.0,29.94,ENE,70,0.0,0.0,96,0.00,,OVC008,0.00,VWS V14.01,2013-09-10 16:06:00,
2013-09-10 09:11:00,61.5,60.1,29.95,ENE,75,0.0,0.0,95,0.00,,OVC008,0.00,VWS V14.01,2013-09-10 16:11:00,
2013-09-10 09:16:00,61.7,60.3,29.95,SW,222,1.0,0.0,95,0.00,,OVC008,0.00,VWS V14.01,2013-09-10 16:16:00,
2013-09-10 09:20:00,62.0,60.6,29.95,West,269,0.0,0.0,95,0.00,,OVC008,0.00,VWS V14.01,2013-09-10 16:20:00,
2013-09-10 09:25:00,62.3,60.6,29.94,WNW,295,3.0,0.0,94,0.00,,OVC010,0.00,VWS V14.01,2013-09-10 16:25:00,
2013-09-10 09:30:00,62.5,60.8,29.94,WNW,294,0.0,0.0,94,0.00,,OVC010,0.00,VWS V14.01,2013-09-10 16:30:00,
2013-09-10 09:35:00,62.9,60.8,29.94,South,173,1.0,0.0,93,0.00,,OVC010,0.00,VWS V14.01,2013-09-10 16:35:00,
2013-09-10 09:40:00,63.2,61.2,29.94,WSW,256,1.0,0.0,93,0.00,,OVC010,0.00,VWS V14.01,2013-09-10 16:40:00,
2013-09-10 09:45:00,63.3,60.9,29.94,South,182,0.0,0.0,92,0.00,,SCT012,0.00,VWS V14.01,2013-09-10 16:45:00,
2013-09-10 09:50:00,63.5,61.1,29.94,SW,219,2.0,0.0,92,0.00,,SCT012,0.00,VWS V14.01,2013-09-10 16:50:00,
2013-09-10 09:55:00,63.5,60.8,29.94,SSW,210,1.0,0.0,91,0.00,,SCT012,0.00,VWS V14.01,2013-09-10 16:55:00,
2013-09-10 10:00:00,63.5,60.8,29.94,South,183,2.0,0.0,91,0.00,,SCT012,0.00,VWS V14.01,2013-09-10 17:00:00,
2013-09-10 10:05:00,63.7,61.0,29.94,SSW,213,2.0,0.0,91,0.00,,CLR,0.00,VWS V14.01,2013-09-10 17:05:00,
2013-09-10 10:10:00,64.1,61.4,29.94,WNW,287,1.0,0.0,91,0.00,,CLR,0.00,VWS V14.01,2013-09-10 17:10:00,
2013-09-10 10:15:00,64.5,61.5,29.94,WSW,244,2.0,0.0,90,0.00,,CLR,0.00,VWS V14.01,2013-09-10 17:15:00,
2013-09-10 10:20:00,64.8,61.5,29.94,SW,236,3.0,0.0,89,0.00,,CLR,0.00,VWS V14.01,2013-09-10 17:20:00,
2013-09-10 10:25:00,65.2,61.9,29.93,SW,227,4.0,0.0,89,0.00,,CLR,0.00,VWS V14.01,2013-09-10 17:25:00,
2013-09-10 10:30:00,65.6,62.0,29.93,West,267,4.0,0.0,88,0.00,,CLR,0.00,VWS V14.01,2013-09-10 17:30:00,
2013-09-10 10:35:00,65.8,62.2,29.93,West,260,1.0,0.0,88,0.00,,CLR,0.00,VWS V14.01,2013-09-10 17:35:00,
2013-09-10 10:40:00,66.0,62.0,29.93,West,267,3.0,0.0,87,0.00,,CLR,0.00,VWS V14.01,2013-09-10 17:40:00,
2013-09-10 10:45:00,66.4,62.7,29.93,South,175,1.0,0.0,88,0.00,,CLR,0.00,VWS V14.01,2013-09-10 17:45:00,
2013-09-10 10:50:00,67.1,62.8,29.93,SW,219,0.0,0.0,86,0.00,,CLR,0.00,VWS V14.01,2013-09-10 17:50:00,
2013-09-10 10:55:00,67.4,62.7,29.93,West,259,1.0,0.0,85,0.00,,CLR,0.00,VWS V14.01,2013-09-10 17:55:00,
2013-09-10 11:00:00,67.6,62.9,29.93,SW,214,3.0,0.0,85,0.00,,CLR,0.00,VWS V14.01,2013-09-10 18:00:00,
2013-09-10 11:05:00,67.8,63.1,29.93,SSW,210,1.0,0.0,85,0.00,,CLR,0.00,VWS V14.01,2013-09-10 18:05:00,
2013-09-10 11:10:00,68.3,63.3,29.93,WSW,246,4.0,0.0,84,0.00,,CLR,0.00,VWS V14.01,2013-09-10 18:10:00,
2013-09-10 11:15:00,68.3,62.9,29.92,NW,310,2.0,0.0,83,0.00,,CLR,0.00,VWS V14.01,2013-09-10 18:15:00,
2013-09-10 11:20:00,68.6,63.6,29.92,WSW,244,3.0,0.0,84,0.00,,CLR,0.00,VWS V14.01,2013-09-10 18:20:00,
2013-09-10 11:25:00,68.9,63.2,29.92,South,184,5.0,0.0,82,0.00,,CLR,0.00,VWS V14.01,2013-09-10 18:25:00,
2013-09-10 11:30:00,69.2,63.8,29.92,WSW,257,4.0,0.0,83,0.00,,CLR,0.00,VWS V14.01,2013-09-10 18:30:00,
2013-09-10 11:35:00,69.4,63.7,29.92,SSW,207,5.0,0.0,82,0.00,,CLR,0.00,VWS V14.01,2013-09-10 18:35:00,
2013-09-10 11:40:00,69.7,64.0,29.91,SE,144,2.0,0.0,82,0.00,,CLR,0.00,VWS V14.01,2013-09-10 18:40:00,
2013-09-10 11:45:00,70.5,64.4,29.91,SW,217,6.0,0.0,81,0.00,,CLR,0.00,VWS V14.01,2013-09-10 18:45:00,
2013-09-10 11:50:00,70.7,64.6,29.91,WSW,241,2.0,0.0,81,0.00,,CLR,0.00,VWS V14.01,2013-09-10 18:50:00,
2013-09-10 11:55:00,70.9,64.4,29.91,SW,223,5.0,0.0,80,0.00,,CLR,0.00,VWS V14.01,2013-09-10 18:55:00,
2013-09-10 12:00:00,71.2,64.7,29.91,SW,232,2.0,0.0,80,0.00,,CLR,0.00,VWS V14.01,2013-09-10 19:00:00,
2013-09-10 12:05:00,71.8,64.9,29.91,WNW,288,2.0,0.0,79,0.00,,CLR,0.00,VWS V14.01,2013-09-10 19:05:00,
2013-09-10 12:10:00,72.1,64.9,29.90,SSE,167,3.0,0.0,78,0.00,,CLR,0.00,VWS V14.01,2013-09-10 19:10:00,
2013-09-10 12:15:00,72.5,64.9,29.90,WSW,238,4.0,0.0,77,0.00,,CLR,0.00,VWS V14.01,2013-09-10 19:15:00,
2013-09-10 12:20:00,72.4,65.2,29.90,WSW,241,4.0,0.0,78,0.00,,CLR,0.00,VWS V14.01,2013-09-10 19:20:00,
2013-09-10 12:25:00,73.0,65.7,29.90,South,172,0.0,0.0,78,0.00,,CLR,0.00,VWS V14.01,2013-09-10 19:25:00,
2013-09-10 12:30:00,73.1,65.1,29.90,SSW,213,5.0,0.0,76,0.00,,CLR,0.00,VWS V14.01,2013-09-10 19:30:00,
2013-09-10 12:35:00,73.7,66.1,29.90,West,267,2.0,0.0,77,0.00,,CLR,0.00,VWS V14.01,2013-09-10 19:35:00,
2013-09-10 12:40:00,74.3,66.2,29.89,SW,214,4.0,0.0,76,0.00,,CLR,0.00,VWS V14.01,2013-09-10 19:40:00,
2013-09-10 12:45:00,74.3,65.5,29.89,WSW,247,1.0,0.0,74,0.00,,CLR,0.00,VWS V14.01,2013-09-10 19:45:00,
2013-09-10 12:50:00,74.7,66.6,29.89,WSW,245,2.0,0.0,76,0.00,,CLR,0.00,VWS V14.01,2013-09-10 19:50:00,
2013-09-10 12:55:00,74.9,66.1,29.89,SSW,194,4.0,0.0,74,0.00,,CLR,0.00,VWS V14.01,2013-09-10 19:55:00,
2013-09-10 13:00:00,75.4,66.2,29.89,WSW,245,3.0,0.0,73,0.00,,CLR,0.00,VWS V14.01,2013-09-10 20:00:00,
2013-09-10 13:05:00,75.4,65.8,29.88,SW,230,5.0,0.0,72,0.00,,CLR,0.00,VWS V14.01,2013-09-10 20:05:00,
2013-09-10 13:10:00,75.9,67.0,29.88,SW,219,1.0,0.0,74,0.00,,CLR,0.00,VWS V14.01,2013-09-10 20:10:00,
2013-09-10 13:15:00,76.2,66.9,29.88,WSW,245,5.0,0.0,73,0.00,,CLR,0.00,VWS V14.01,2013-09-10 20:15:00,
2013-09-10 13:20:00,76.6,66.5,29.88,South,186,0.0,0.0,71,0.00,,CLR,0.00,VWS V14.01,2013-09-10 20:20:00,
2013-09-10 13:25:00,77.0,66.9,29.88,WSW,242,4.0,0.0,71,0.00,,CLR,0.00,VWS V14.01,2013-09-10 20:25:00,
2013-09-10 13:30:00,77.1,66.6,29.87,SSW,202,2.0,0.0,70,0.00,,CLR,0.00,VWS V14.01,2013-09-10 20:30:00,
2013-09-10 13:35:00,77.5,66.9,29.87,SSE,149,2.0,0.0,70,0.00,,CLR,0.00,VWS V14.01,2013-09-10 20:35:00,
2013-09-10 13:40:00,78.2,67.2,29.87,SSW,202,1.0,0.0,69,0.00,,CLR,0.00,VWS V14.01,2013-09-10 20:40:00,
2013-09-10 13:45:00,78.5,66.2,29.87,West,273,1.0,0.0,66,0.00,,CLR,0.00,VWS V14.01,2013-09-10 20:45:00,
2013-09-10 13:50:00,78.7,66.8,29.87,South,188,3.0,0.0,67,0.00,,CLR,0.00,VWS V14.01,2013-09-10 20:50:00,
2013-09-10 13:55:00,79.0,66.7,29.87,South,180,3.0,0.0,66,0.00,,CLR,0.00,VWS V14.01,2013-09-10 20:55:00,
2013-09-10 14:00:00,79.0,66.7,29.87,SSW,192,2.0,0.0,66,0.00,,CLR,0.00,VWS V14.01,2013-09-10 21:00:00,
2013-09-10 14:05:00,79.4,66.6,29.86,West,279,0.0,0.0,65,0.00,,CLR,0.00,VWS V14.01,2013-09-10 21:05:00,
2013-09-10 14:10:00,80.0,68.1,29.86,WSW,244,0.0,0.0,67,0.00,,CLR,0.00,VWS V14.01,2013-09-10 21:10:00,
2013-09-10 14:15:00,80.5,67.7,29.86,SSW,207,2.0,0.0,65,0.00,,CLR,0.00,VWS V14.01,2013-09-10 21:15:00,
2013-09-10 14:20:00,80.7,66.9,29.86,WNW,283,2.0,0.0,63,0.00,,CLR,0.00,VWS V14.01,2013-09-10 21:20:00,
2013-09-10 14:25:00,80.6,67.3,29.86,SE,138,0.0,0.0,64,0.00,,CLR,0.00,VWS V14.01,2013-09-10 21:25:00,
2013-09-10 14:30:00,81.5,68.2,29.86,ESE,107,3.0,0.0,64,0.00,,CLR,0.00,VWS V14.01,2013-09-10 21:30:00,
2013-09-10 14:35:00,81.7,67.4,29.85,SW,217,2.0,0.0,62,0.00,,CLR,0.00,VWS V14.01,2013-09-10 21:35:00,
2013-09-10 14:40:00,81.6,66.9,29.85,SW,230,2.0,0.0,61,0.00,,CLR,0.00,VWS V14.01,2013-09-10 21:40:00,
2013-09-10 14:45:00,81.6,67.3,29.85,WSW,251,1.0,0.0,62,0.00,,CLR,0.00,VWS V14.01,2013-09-10 21:45:00,
2013-09-10 14:50:00,82.0,67.2,29.85,WSW,246,1.0,0.0,61,0.00,,CLR,0.00,VWS V14.01,2013-09-10 21:50:00,
2013-09-10 14:55:00,82.6,66.8,29.85,SW,219,1.0,0.0,59,0.00,,CLR,0.00,VWS V14.01,2013-09-10 21:55:00,
2013-09-10 15:00:00,83.0,66.7,29.84,South,176,0.0,0.0,58,0.00,,CLR,0.00,VWS V14.01,2013-09-10 22:00:00,
2013-09-10 15:05:00,83.3,67.0,29.84,South,171,0.0,0.0,58,0.00,,CLR,0.00,VWS V14.01,2013-09-10 22:05:00,
2013-09-10 15:10:00,83.6,66.3,29.84,ESE,114,0.0,0.0,56,0.00,,CLR,0.00,VWS V14.01,2013-09-10 22:10:00,
2013-09-10 15:15:00,83.4,67.6,29.84,SW,233,3.0,0.0,59,0.00,,CLR,0.00,VWS V14.01,2013-09-10 22:15:00,
2013-09-10 15:20:00,82.8,67.0,29.84,West,271,4.0,0.0,59,0.00,,CLR,0.00,VWS V14.01,2013-09-10 22:20:00,
2013-09-10 15:25:00,82.5,66.2,29.84,SW,218,3.0,0.0,58,0.00,,CLR,0.00,VWS V14.01,2013-09-10 22:25:00,
2013-09-10 15:30:00,82.4,66.2,29.84,East,93,1.0,0.0,58,0.00,,CLR,0.00,VWS V14.01,2013-09-10 22:30:00,
2013-09-10 15:35:00,82.3,66.1,29.83,ESE,107,2.0,0.0,58,0.00,,CLR,0.00,VWS V14.01,2013-09-10 22:35:00,
2013-09-10 15:40:00,82.8,67.0,29.83,East,94,4.0,0.0,59,0.00,,CLR,0.00,VWS V14.01,2013-09-10 22:40:00,
2013-09-10 15:45:00,82.9,67.1,29.83,South,184,2.0,0.0,59,0.00,,CLR,0.00,VWS V14.01,2013-09-10 22:45:00,
2013-09-10 15:50:00,83.1,66.3,29.83,South,179,0.0,0.0,57,0.00,,CLR,0.00,VWS V14.01,2013-09-10 22:50:00,
2013-09-10 15:55:00,83.3,66.5,29.83,SSW,196,1.0,0.0,57,0.00,,CLR,0.00,VWS V14.01,2013-09-10 22:55:00,
2013-09-10 16:00:00,83.5,66.7,29.83,SW,222,10.0,0.0,57,0.00,,CLR,0.00,VWS V14.01,2013-09-10 23:00:00,
2013-09-10 16:05:00,83.6,67.3,29.83,East,88,0.0,0.0,58,0.00,,CLR,0.00,VWS V14.01,2013-09-10 23:05:00,
2013-09-10 16:10:00,83.9,67.6,29.82,ESE,122,0.0,0.0,58,0.00,,CLR,0.00,VWS V14.01,2013-09-10 23:10:00,
2013-09-10 16:15:00,84.1,67.2,29.83,South,187,1.0,0.0,57,0.00,,CLR,0.00,VWS V14.01,2013-09-10 23:15:00,
2013-09-10 16:20:00,84.1,67.2,29.82,WNW,283,3.0,0.0,57,0.00,,CLR,0.00,VWS V14.01,2013-09-10 23:20:00,
2013-09-10 16:25:00,83.9,67.1,29.82,SSE,155,3.0,0.0,57,0.00,,CLR,0.00,VWS V14.01,2013-09-10 23:25:00,
2013-09-10 16:30:00,83.6,66.3,29.82,SSW,195,4.0,0.0,56,0.00,,CLR,0.00,VWS V14.01,2013-09-10 23:30:00,
2013-09-10 16:35:00,83.6,66.8,29.82,SSW,198,3.0,0.0,57,0.00,,CLR,0.00,VWS V14.01,2013-09-10 23:35:00,
2013-09-10 16:40:00,83.6,67.3,29.82,SSW,199,4.0,0.0,58,0.00,,CLR,0.00,VWS V14.01,2013-09-10 23:40:00,
2013-09-10 16:45:00,83.8,67.0,29.82,East,96,0.0,0.0,57,0.00,,CLR,0.00,VWS V14.01,2013-09-10 23:45:00,
2013-09-10 16:50:00,84.1,67.2,29.82,WSW,241,4.0,0.0,57,0.00,,CLR,0.00,VWS V14.01,2013-09-10 23:50:00,
2013-09-10 16:55:00,84.2,66.8,29.82,SSE,150,0.0,0.0,56,0.00,,CLR,0.00,VWS V14.01,2013-09-10 23:55:00,
2013-09-10 17:00:00,85.1,67.1,29.82,WNW,298,2.0,0.0,55,0.00,,CLR,0.00,VWS V14.01,2013-09-11 00:00:00,
2013-09-10 17:05:00,85.5,67.0,29.82,ESE,102,1.0,0.0,54,0.00,,CLR,0.00,VWS V14.01,2013-09-11 00:05:00,
2013-09-10 17:10:00,85.8,67.2,29.82,ESE,114,0.0,0.0,54,0.00,,CLR,0.00,VWS V14.01,2013-09-11 00:10:00,
2013-09-10 17:15:00,85.9,67.3,29.82,SSW,192,3.0,0.0,54,0.00,,CLR,0.00,VWS V14.01,2013-09-11 00:15:00,
2013-09-10 17:20:00,85.2,65.6,29.81,South,171,0.0,0.0,52,0.00,,CLR,0.00,VWS V14.01,2013-09-11 00:20:00,
2013-09-10 17:25:00,85.1,66.1,29.81,ENE,58,1.0,0.0,53,0.00,,CLR,0.00,VWS V14.01,2013-09-11 00:25:00,
2013-09-10 17:30:00,84.9,65.9,29.81,SE,125,0.0,0.0,53,0.00,,CLR,0.00,VWS V14.01,2013-09-11 00:30:00,
2013-09-10 17:35:00,84.4,65.4,29.81,NE,56,3.0,0.0,53,0.00,,CLR,0.00,VWS V14.01,2013-09-11 00:35:00,
2013-09-10 17:40:00,84.7,66.2,29.81,WSW,246,0.0,0.0,54,0.00,,CLR,0.00,VWS V14.01,2013-09-11 00:40:00,
2013-09-10 17:45:00,83.9,65.5,29.81,SSW,207,1.0,0.0,54,0.00,,CLR,0.00,VWS V14.01,2013-09-11 00:45:00,
2013-09-10 17:50:00,83.7,65.8,29.81,ESE,105,1.0,0.0,55,0.00,,CLR,0.00,VWS V14.01,2013-09-11 00:50:00,
2013-09-10 17:55:00,83.2,65.9,29.81,SSW,205,2.0,0.0,56,0.00,,CLR,0.00,VWS V14.01,2013-09-11 00:55:00,
2013-09-10 18:00:00,82.6,66.3,29.81,SW,230,1.0,0.0,58,0.00,,CLR,0.00,VWS V14.01,2013-09-11 01:00:00,
2013-09-10 18:05:00,82.3,66.1,29.81,ENE,60,2.0,0.0,58,0.00,,CLR,0.00,VWS V14.01,2013-09-11 01:05:00,
2013-09-10 18:10:00,82.3,66.1,29.82,ENE,70,3.0,0.0,58,0.00,,CLR,0.00,VWS V14.01,2013-09-11 01:10:00,
2013-09-10 18:15:00,82.2,66.5,29.81,East,101,1.0,0.0,59,0.00,,CLR,0.00,VWS V14.01,2013-09-11 01:15:00,
2013-09-10 18:20:00,82.0,66.3,29.82,ESE,107,0.0,0.0,59,0.00,,CLR,0.00,VWS V14.01,2013-09-11 01:20:00,
2013-09-10 18:25:00,81.7,66.5,29.81,West,260,1.0,0.0,60,0.00,,CLR,0.00,VWS V14.01,2013-09-11 01:25:00,
2013-09-10 18:30:00,81.4,66.2,29.81,East,101,0.0,0.0,60,0.00,,CLR,0.00,VWS V14.01,2013-09-11 01:30:00,
2013-09-10 18:35:00,81.2,66.5,29.81,East,98,0.0,0.0,61,0.00,,CLR,0.00,VWS V14.01,2013-09-11 01:35:00,
2013-09-10 18:40:00,81.0,66.8,29.81,SSE,165,1.0,0.0,62,0.00,,CLR,0.00,VWS V14.01,2013-09-11 01:40:00,
2013-09-10 18:45:00,80.6,66.4,29.81,WSW,252,2.0,0.0,62,0.00,,CLR,0.00,VWS V14.01,2013-09-11 01:45:00,
2013-09-10 18:50:00,80.3,66.6,29.81,SE,142,0.0,0.0,63,0.00,,CLR,0.00,VWS V14.01,2013-09-11 01:50:00,
2013-09-10 18:55:00,80.3,66.6,29.81,ESE,109,4.0,0.0,63,0.00,,CLR,0.00,VWS V14.01,2013-09-11 01:55:00,
2013-09-10 19:00:00,80.2,66.9,29.81,SW,228,1.0,0.0,64,0.00,,CLR,0.00,VWS V14.01,2013-09-11 02:00:00,
2013-09-10 19:05:00,80.1,66.4,29.81,ESE,118,0.0,0.0,63,0.00,,CLR,0.00,VWS V14.01,2013-09-11 02:05:00,
2013-09-10 19:10:00,80.1,65.9,29.81,SSW,207,0.0,0.0,62,0.00,,CLR,0.00,VWS V14.01,2013-09-11 02:10:00,
2013-09-10 19:15:00,79.5,66.3,29.81,WSW,241,0.0,0.0,64,0.00,,CLR,0.00,VWS V14.01,2013-09-11 02:15:00,
2013-09-10 19:20:00,78.9,65.7,29.81,West,261,2.0,0.0,64,0.00,,CLR,0.00,VWS V14.01,2013-09-11 02:20:00,
2013-09-10 19:25:00,78.7,65.5,29.81,SW,227,3.0,0.0,64,0.00,,CLR,0.00,VWS V14.01,2013-09-11 02:25:00,
2013-09-10 19:30:00,78.3,65.6,29.81,East,87,1.0,0.0,65,0.00,,CLR,0.00,VWS V14.01,2013-09-11 02:30:00,
2013-09-10 19:35:00,78.1,64.9,29.82,WNW,282,2.0,0.0,64,0.00,,CLR,0.00,VWS V14.01,2013-09-11 02:35:00,
2013-09-10 19:40:00,77.8,65.1,29.81,SSE,159,0.0,0.0,65,0.00,,CLR,0.00,VWS V14.01,2013-09-11 02:40:00,
2013-09-10 19:45:00,77.3,65.5,29.82,NNE,23,1.0,0.0,67,0.00,,CLR,0.00,VWS V14.01,2013-09-11 02:45:00,
2013-09-10 19:50:00,76.8,65.0,29.82,NE,42,0.0,0.0,67,0.00,,CLR,0.00,VWS V14.01,2013-09-11 02:50:00,
2013-09-10 19:55:00,76.4,65.1,29.82,NE,42,0.0,0.0,68,0.00,,CLR,0.00,VWS V14.01,2013-09-11 02:55:00,
2013-09-10 20:00:00,76.0,64.7,29.82,NNW,335,1.0,0.0,68,0.00,,CLR,0.00,VWS V14.01,2013-09-11 03:00:00,
2013-09-10 20:05:00,75.7,64.8,29.82,NNE,13,3.0,0.0,69,0.00,,CLR,0.00,VWS V14.01,2013-09-11 03:05:00,
2013-09-10 20:10:00,75.5,64.6,29.83,ENE,76,1.0,0.0,69,0.00,,CLR,0.00,VWS V14.01,2013-09-11 03:10:00,
2013-09-10 20:15:00,75.3,64.4,29.83,WNW,297,0.0,0.0,69,0.00,,CLR,0.00,VWS V14.01,2013-09-11 03:15:00,
2013-09-10 20:20:00,74.9,64.1,29.83,WNW,298,0.0,0.0,69,0.00,,CLR,0.00,VWS V14.01,2013-09-11 03:20:00,
2013-09-10 20:25:00,74.6,64.2,29.83,ENE,63,1.0,0.0,70,0.00,,CLR,0.00,VWS V14.01,2013-09-11 03:25:00,
2013-09-10 20:30:00,74.9,64.9,29.83,NNW,336,3.0,0.0,71,0.00,,CLR,0.00,VWS V14.01,2013-09-11 03:30:00,
2013-09-10 20:35:00,75.2,64.8,29.83,NW,311,2.0,0.0,70,0.00,,CLR,0.00,VWS V14.01,2013-09-11 03:35:00,
2013-09-10 20:40:00,74.9,64.9,29.84,NW,310,0.0,0.0,71,0.00,,CLR,0.00,VWS V14.01,2013-09-11 03:40:00,
2013-09-10 20:45:00,74.5,64.9,29.84,NW,317,0.0,0.0,72,0.00,,CLR,0.00,VWS V14.01,2013-09-11 03:45:00,
2013-09-10 20:50:00,74.1,64.9,29.84,NW,319,4.0,0.0,73,0.00,,CLR,0.00,VWS V14.01,2013-09-11 03:50:00,
2013-09-10 20:55:00,74.3,65.1,29.83,WNW,288,2.0,0.0,73,0.00,,CLR,0.00,VWS V14.01,2013-09-11 03:55:00,
2013-09-10 21:00:00,74.0,64.8,29.83,SSW,210,0.0,0.0,73,0.00,,CLR,0.00,VWS V14.01,2013-09-11 04:00:00,
2013-09-10 21:01:00,73.9,64.7,29.84,SSW,210,0.0,0.0,73,0.00,,CLR,0.00,VWS V14.01,2013-09-11 04:01:00,
2013-09-10 21:06:00,73.5,64.3,29.84,ENE,60,0.0,0.0,73,0.00,,CLR,0.00,VWS V14.01,2013-09-11 04:06:00,
2013-09-10 21:11:00,73.4,64.6,29.83,NE,52,0.0,0.0,74,0.00,,CLR,0.00,VWS V14.01,2013-09-11 04:11:00,
2013-09-10 21:16:00,72.9,64.1,29.83,NE,40,3.0,0.0,74,0.00,,CLR,0.00,VWS V14.01,2013-09-11 04:16:00,
2013-09-10 21:21:00,73.0,64.2,29.83,ENE,65,1.0,0.0,74,0.00,,CLR,0.00,VWS V14.01,2013-09-11 04:21:00,
2013-09-10 21:26:00,73.1,64.3,29.84,NE,44,2.0,0.0,74,0.00,,CLR,0.00,VWS V14.01,2013-09-11 04:26:00,
2013-09-10 21:31:00,72.8,64.4,29.84,NNE,15,2.0,0.0,75,0.00,,CLR,0.00,VWS V14.01,2013-09-11 04:31:00,
2013-09-10 21:36:00,72.4,64.0,29.84,NNE,28,0.0,0.0,75,0.00,,CLR,0.00,VWS V14.01,2013-09-11 04:36:00,
2013-09-10 21:41:00,72.3,63.9,29.84,North,355,1.0,0.0,75,0.00,,CLR,0.00,VWS V14.01,2013-09-11 04:41:00,
2013-09-10 21:46:00,72.4,64.0,29.84,NNE,23,3.0,0.0,75,0.00,,CLR,0.00,VWS V14.01,2013-09-11 04:46:00,
2013-09-10 21:51:00,72.0,64.0,29.84,NE,40,0.0,0.0,76,0.00,,CLR,0.00,VWS V14.01,2013-09-11 04:51:00,
2013-09-10 21:56:00,71.4,63.8,29.84,NE,55,2.0,0.0,77,0.00,,CLR,0.00,VWS V14.01,2013-09-11 04:56:00,
2013-09-10 22:01:00,71.0,63.4,29.84,NE,43,2.0,0.0,77,0.00,,CLR,0.00,VWS V14.01,2013-09-11 05:01:00,
2013-09-10 22:06:00,71.1,63.5,29.84,ENE,77,1.0,0.0,77,0.00,,CLR,0.00,VWS V14.01,2013-09-11 05:06:00,
2013-09-10 22:11:00,70.9,63.7,29.84,ENE,77,0.0,0.0,78,0.00,,CLR,0.00,VWS V14.01,2013-09-11 05:11:00,
2013-09-10 22:16:00,70.9,63.7,29.84,NW,314,2.0,0.0,78,0.00,,CLR,0.00,VWS V14.01,2013-09-11 05:16:00,
2013-09-10 22:21:00,71.1,63.9,29.84,NNE,28,0.0,0.0,78,0.00,,CLR,0.00,VWS V14.01,2013-09-11 05:21:00,
2013-09-10 22:26:00,70.5,63.3,29.84,NNE,28,1.0,0.0,78,0.00,,CLR,0.00,VWS V14.01,2013-09-11 05:26:00,
2013-09-10 22:31:00,70.2,63.4,29.84,NE,38,3.0,0.0,79,0.00,,CLR,0.00,VWS V14.01,2013-09-11 05:31:00,
2013-09-10 22:36:00,70.3,63.5,29.84,East,84,0.0,0.0,79,0.00,,CLR,0.00,VWS V14.01,2013-09-11 05:36:00,
2013-09-10 22:41:00,70.0,63.5,29.84,NW,318,2.0,0.0,80,0.00,,CLR,0.00,VWS V14.01,2013-09-11 05:41:00,
2013-09-10 22:46:00,70.1,63.7,29.85,NW,323,2.0,0.0,80,0.00,,CLR,0.00,VWS V14.01,2013-09-11 05:46:00,
2013-09-10 22:51:00,70.1,63.3,29.84,NW,310,1.0,0.0,79,0.00,,CLR,0.00,VWS V14.01,2013-09-11 05:51:00,
2013-09-10 22:56:00,70.1,63.3,29.85,WNW,294,0.0,0.0,79,0.00,,CLR,0.00,VWS V14.01,2013-09-11 05:56:00,
2013-09-10 23:01:00,69.7,63.3,29.85,WNW,294,0.0,0.0,80,0.00,,CLR,0.00,VWS V14.01,2013-09-11 06:01:00,
2013-09-10 23:06:00,69.4,63.0,29.85,North,350,0.0,0.0,80,0.00,,CLR,0.00,VWS V14.01,2013-09-11 06:06:00,
2013-09-10 23:11:00,69.2,62.8,29.85,North,349,0.0,0.0,80,0.00,,CLR,0.00,VWS V14.01,2013-09-11 06:11:00,
2013-09-10 23:16:00,69.1,63.0,29.85,NNW,348,0.0,0.0,81,0.00,,CLR,0.00,VWS V14.01,2013-09-11 06:16:00,
2013-09-10 23:21:00,69.1,63.0,29.85,NE,40,0.0,0.0,81,0.00,,CLR,0.00,VWS V14.01,2013-09-11 06:21:00,
2013-09-10 23:26:00,68.7,62.6,29.84,NE,40,0.0,0.0,81,0.00,,CLR,0.00,VWS V14.01,2013-09-11 06:26:00,
2013-09-10 23:31:00,68.4,62.7,29.85,NE,47,0.0,0.0,82,0.00,,CLR,0.00,VWS V14.01,2013-09-11 06:31:00,
2013-09-10 23:36:00,68.3,62.6,29.85,NE,47,0.0,0.0,82,0.00,,CLR,0.00,VWS V14.01,2013-09-11 06:36:00,
2013-09-10 23:41:00,68.1,62.4,29.85,NE,47,0.0,0.0,82,0.00,,CLR,0.00,VWS V14.01,2013-09-11 06:41:00,
2013-09-10 23:46:00,67.8,62.8,29.85,NE,42,0.0,0.0,84,0.00,,CLR,0.00,VWS V14.01,2013-09-11 06:46:00,
2013-09-10 23:51:00,67.6,62.6,29.85,NE,41,0.0,0.0,84,0.00,,CLR,0.00,VWS V14.01,2013-09-11 06:51:00,
2013-09-10 23:56:00,67.5,62.5,29.85,ESE,119,2.0,0.0,84,0.00,,CLR,0.00,VWS V14.01,2013-09-11 06:56:00,